FW1908 Weather Reports


Display with metric or nautical units.
time (UTC)temp
F
wind
direction
speed
MPH
gust
MPH
rain 1hr
in
rain 24hr
in
rain mn
in
humidity
%
barometer
mb
20260904050531 82 344 0.0 1.0 0.00 0.00 0.00 78 1017.8
20260904050251 82 344 0.0 1.0 0.00 0.00 0.00 78 1017.9
20260904045757 82 344 0.0 2.0 0.00 0.00 0.00 77 1017.9
20260904045029 82 344 0.0 2.0 0.00 0.00 0.00 77 1017.9
20260904044527 82 311 0.0 1.0 0.00 0.00 0.00 77 1017.9
20260904044027 82 311 0.0 2.0 0.00 0.00 0.00 77 1017.9
20260904043527 82 311 0.0 2.0 0.00 0.00 0.00 77 1017.8
20260904043026 82 311 0.0 3.0 0.00 0.00 0.00 77 1017.9
20260904042748 82 311 0.0 3.0 0.00 0.00 0.00 77 1017.8
20260904041741 82 230 0.0 2.0 0.00 0.00 0.00 77 1017.8
20260904041022 82 230 0.0 4.0 0.00 0.00 0.00 77 1017.7
20260904040522 82 230 0.0 4.0 0.00 0.00 0.00 77 1017.7
20260904040021 82 274 0.0 2.0 0.00 0.00 0.00 77 1017.7
20260904035515 82 265 0.0 3.0 0.00 0.00 0.00 77 1017.8
20260904035009 82 265 0.0 3.0 0.00 0.00 0.00 77 1017.8
20260904033956 82 265 0.0 4.0 0.00 0.00 0.00 77 1018.0
20260904033451 82 199 0.0 3.0 0.00 0.00 0.00 77 1018.1
20260904032945 82 94 0.0 2.0 0.00 0.00 0.00 77 1018.0
20260904032704 83 94 0.0 2.0 0.00 0.00 0.00 77 1018.0
20260904031933 83 90 0.0 0.0 0.00 0.00 0.00 77 1018.0
20260904031427 83 90 0.0 0.0 0.00 0.00 0.00 77 1018.0
20260904030420 83 90 0.0 0.0 0.00 0.00 0.00 77 1018.0
20260904025922 83 90 0.0 0.0 0.00 0.00 0.00 77 1018.0
20260904025421 83 90 0.0 0.0 0.00 0.00 0.00 76 1018.0
20260904024919 83 90 0.0 0.0 0.00 0.00 0.00 76 1018.1
20260904024418 83 90 0.0 0.0 0.00 0.00 0.00 77 1018.1
20260904024143 83 90 0.0 0.0 0.00 0.00 0.00 76 1018.1
20260904023420 83 90 0.0 0.0 0.00 0.00 0.00 76 1018.0
20260904022917 84 90 0.0 2.0 0.00 0.00 0.00 76 1018.0
20260904022415 84 90 0.0 2.0 0.00 0.00 0.00 75 1017.9
20260904021915 84 90 0.0 0.0 0.00 0.00 0.00 75 1018.0
20260904021415 84 90 0.0 0.0 0.00 0.00 0.00 75 1018.0
20260904020912 84 90 0.0 0.0 0.00 0.00 0.00 74 1018.0
20260904020633 84 90 0.0 0.0 0.00 0.00 0.00 74 1017.9
20260904015913 84 90 0.0 0.0 0.00 0.00 0.00 74 1017.8
20260904015411 85 90 0.0 0.0 0.00 0.00 0.00 74 1017.8
20260904015138 85 90 0.0 0.0 0.00 0.00 0.00 73 1017.8
20260904014405 85 90 0.0 0.0 0.00 0.00 0.00 73 1017.7
20260904014135 85 90 0.0 0.0 0.00 0.00 0.00 73 1017.6
20260904013629 85 90 0.0 0.0 0.00 0.00 0.00 72 1017.6
20260904012900 85 90 0.0 0.0 0.00 0.00 0.00 71 1017.5
20260904012400 86 90 0.0 0.0 0.00 0.00 0.00 71 1017.4
20260904011858 86 90 0.0 0.0 0.00 0.00 0.00 70 1017.3
20260904011358 86 90 0.0 0.0 0.00 0.00 0.00 70 1017.3
20260904010857 86 90 0.0 0.0 0.00 0.00 0.00 69 1017.1
20260904010357 87 90 0.0 0.0 0.00 0.00 0.00 69 1017.1
20260904005857 87 90 0.0 0.0 0.00 0.00 0.00 69 1017.0
20260904005354 87 90 0.0 0.0 0.00 0.00 0.00 68 1016.9
20260904004852 87 90 0.0 0.0 0.00 0.00 0.00 68 1016.7
20260904004348 87 90 0.0 0.0 0.00 0.00 0.00 67 1016.7
20260904003849 88 90 0.0 0.0 0.00 0.00 0.00 67 1016.7
20260904003348 88 90 0.0 0.0 0.00 0.00 0.00 66 1016.6
20260904002846 88 90 0.0 0.0 0.00 0.00 0.00 65 1016.5
20260904002345 88 90 0.0 0.0 0.00 0.00 0.00 64 1016.4
20260904001846 89 90 0.0 0.0 0.00 0.00 0.00 65 1016.3
20260904001345 89 90 0.0 0.0 0.00 0.00 0.00 64 1016.2
20260904000846 89 90 0.0 1.0 0.00 0.00 0.00 63 1016.2
20260904000344 90 90 0.0 1.0 0.00 0.00 0.00 63 1016.1
20260904000107 90 90 0.0 1.0 0.00 0.00 0.00 62 1016.1
20260903235608 91 90 0.0 0.0 0.00 0.00 0.00 62 1016.1
20260903234846 91 90 0.0 1.0 0.00 0.00 0.00 60 1016.0
20260903234600 91 90 0.0 1.0 0.00 0.00 0.00 60 1015.9
20260903233841 91 90 0.0 1.0 0.00 0.00 0.00 60 1015.8
20260903233341 92 90 0.0 1.0 0.00 0.00 0.00 59 1015.9
20260903233101 92 90 0.0 1.0 0.00 0.00 0.00 58 1015.9
20260903232340 92 90 1.0 2.0 0.00 0.00 0.00 58 1015.8
20260903231841 92 90 1.0 2.0 0.00 0.00 0.00 58 1015.8
20260903231341 93 90 0.0 3.0 0.00 0.00 0.00 56 1015.7
20260903230841 93 90 0.0 3.0 0.00 0.00 0.00 56 1015.8
20260903230607 93 90 1.0 3.0 0.00 0.00 0.00 55 1015.8
20260903225837 93 90 1.0 4.0 0.00 0.00 0.00 55 1015.8
20260903225337 93 90 1.0 4.0 0.00 0.00 0.00 55 1015.9
20260903224836 94 90 1.0 4.0 0.00 0.00 0.00 54 1015.8
20260903224336 94 90 1.0 4.0 0.00 0.00 0.00 54 1015.8
20260903223837 94 93 0.0 2.0 0.00 0.00 0.00 54 1015.9
20260903223336 94 92 2.0 8.0 0.00 0.00 0.00 53 1015.8
20260903222837 94 97 3.0 8.0 0.00 0.00 0.00 53 1015.9
20260903222337 94 84 3.0 7.0 0.00 0.00 0.00 52 1016.0
20260903221837 94 78 2.0 4.0 0.00 0.00 0.00 52 1016.1
20260903221600 94 94 1.0 6.0 0.00 0.00 0.00 52 1016.0
20260903220837 94 94 2.0 6.0 0.00 0.00 0.00 51 1016.0
20260903220337 94 56 2.0 7.0 0.00 0.00 0.00 51 1016.0
20260903215836 94 90 2.0 7.0 0.00 0.00 0.00 51 1016.0
20260903215335 94 70 2.0 6.0 0.00 0.00 0.00 52 1016.0
20260903214835 94 84 2.0 4.0 0.00 0.00 0.00 52 1016.0
20260903214334 95 86 2.0 4.0 0.00 0.00 0.00 51 1016.0
20260903213335 95 101 1.0 4.0 0.00 0.00 0.00 52 1016.1
20260903212551 95 311 1.0 4.0 0.00 0.00 0.00 53 1016.1
20260903212050 95 236 1.0 3.0 0.00 0.00 0.00 53 1016.1
20260903211333 95 200 2.0 7.0 0.00 0.00 0.00 55 1016.1
20260903210830 95 215 2.0 7.0 0.00 0.00 0.00 53 1016.1
20260903210324 95 80 2.0 5.0 0.00 0.00 0.00 53 1016.1
20260903205817 96 250 2.0 5.0 0.00 0.00 0.00 52 1016.1
20260903205315 96 155 2.0 5.0 0.00 0.00 0.00 52 1016.1
20260903205036 96 190 2.0 6.0 0.00 0.00 0.00 53 1016.1
20260903204314 96 275 3.0 6.0 0.00 0.00 0.00 50 1016.2
20260903203812 96 82 2.0 6.0 0.00 0.00 0.00 52 1016.2
20260903203310 97 142 2.0 6.0 0.00 0.00 0.00 48 1016.3
20260903202808 98 82 2.0 7.0 0.00 0.00 0.00 49 1016.4
20260903201804 99 116 1.0 7.0 0.00 0.00 0.00 47 1016.4
20260903200304 99 153 2.0 6.0 0.00 0.00 0.00 48 1016.6
20260903195803 99 59 2.0 4.0 0.00 0.00 0.00 47 1016.6
20260903195306 99 256 2.0 7.0 0.00 0.00 0.00 48 1016.7
20260903195020 99 232 2.0 7.0 0.00 0.00 0.00 47 1016.8
20260903194302 99 295 2.0 5.0 0.00 0.00 0.00 45 1016.8
20260903193802 99 234 2.0 5.0 0.00 0.00 0.00 49 1016.8
20260903193302 99 86 2.0 7.0 0.00 0.00 0.00 47 1016.9
20260903192803 99 30 3.0 8.0 0.00 0.00 0.00 47 1016.9
20260903192257 99 108 3.0 9.0 0.00 0.00 0.00 46 1016.9
20260903192015 99 35 3.0 9.0 0.00 0.00 0.00 47 1017.0
20260903191245 99 82 1.0 3.0 0.00 0.00 0.00 48 1017.1
20260903190739 99 85 2.0 6.0 0.00 0.00 0.00 47 1017.1
20260903190233 99 85 3.0 8.0 0.00 0.00 0.00 46 1017.1
20260903185727 99 5 3.0 9.0 0.00 0.00 0.00 48 1017.1
20260903185221 99 66 2.0 9.0 0.00 0.00 0.00 49 1017.1
20260903184937 99 88 1.0 7.0 0.00 0.00 0.00 50 1017.3
20260903184210 99 95 2.0 7.0 0.00 0.00 0.00 49 1017.3
20260903183925 99 98 2.0 7.0 0.00 0.00 0.00 49 1017.4
20260903182651 99 77 3.0 11.0 0.00 0.00 0.00 48 1017.4
20260903182403 99 108 4.0 11.0 0.00 0.00 0.00 48 1017.5
20260903181133 99 130 2.0 7.0 0.00 0.00 0.00 47 1017.6
20260903180628 98 41 2.0 6.0 0.00 0.00 0.00 48 1017.5
20260903180121 98 70 1.0 4.0 0.00 0.00 0.00 51 1017.6
20260903175615 98 77 2.0 5.0 0.00 0.00 0.00 50 1017.6
20260903175109 98 78 2.0 5.0 0.00 0.00 0.00 49 1017.7
20260903174603 98 82 2.0 7.0 0.00 0.00 0.00 50 1017.7
20260903174059 98 71 2.0 7.0 0.00 0.00 0.00 49 1017.8
20260903173552 99 75 2.0 6.0 0.00 0.00 0.00 48 1017.8
20260903173046 99 103 2.0 6.0 0.00 0.00 0.00 50 1017.9
20260903172539 99 93 1.0 5.0 0.00 0.00 0.00 47 1018.0
20260903172256 99 180 2.0 5.0 0.00 0.00 0.00 46 1018.1
20260903171528 98 83 2.0 6.0 0.00 0.00 0.00 47 1018.1
20260903171021 98 111 2.0 9.0 0.00 0.00 0.00 50 1018.1
20260903170516 98 55 1.0 9.0 0.00 0.00 0.00 47 1018.1
20260903170011 98 166 0.0 6.0 0.00 0.00 0.00 47 1018.2
20260903165504 98 93 0.0 0.0 0.00 0.00 0.00 46 1018.2
20260903164957 98 103 0.0 0.0 0.00 0.00 0.00 48 1018.3
20260903164452 98 17 0.0 0.0 0.00 0.00 0.00 49 1018.4
20260903163945 98 35 0.0 0.0 0.00 0.00 0.00 49 1018.4
20260903163702 97 31 0.0 0.0 0.00 0.00 0.00 52 1018.4
20260903162933 97 20 0.0 0.0 0.00 0.00 0.00 48 1018.4
20260903162428 97 97 0.0 0.0 0.00 0.00 0.00 51 1018.5
20260903161921 97 103 0.0 0.0 0.00 0.00 0.00 50 1018.6
20260903161416 96 105 0.0 0.0 0.00 0.00 0.00 51 1018.6
20260903160910 96 246 0.0 0.0 0.00 0.00 0.00 51 1018.7
20260903160404 96 60 0.0 0.0 0.00 0.00 0.00 50 1018.7
20260903155857 96 45 0.0 0.0 0.00 0.00 0.00 53 1018.7
20260903155351 95 82 0.0 0.0 0.00 0.00 0.00 51 1018.6
20260903154845 95 71 0.0 0.0 0.00 0.00 0.00 54 1018.7
20260903154340 95 92 0.0 0.0 0.00 0.00 0.00 56 1018.7
20260903154053 95 34 0.0 0.0 0.00 0.00 0.00 56 1018.6
20260903153327 94 64 0.0 0.0 0.00 0.00 0.00 59 1018.7
20260903152822 94 16 0.0 0.0 0.00 0.00 0.00 62 1018.8
20260903152316 93 10 0.0 0.0 0.00 0.00 0.00 60 1018.9
20260903151811 93 86 0.0 0.0 0.00 0.00 0.00 65 1018.8
20260903151308 92 86 0.0 0.0 0.00 0.00 0.00 66 1018.8
20260903150808 92 86 0.0 0.0 0.00 0.00 0.00 68 1018.8
20260903150304 91 80 0.0 0.0 0.00 0.00 0.00 66 1018.8
20260903150023 91 69 0.0 0.0 0.00 0.00 0.00 67 1018.7
20260903145518 90 68 0.0 0.0 0.00 0.00 0.00 70 1018.7
20260903144800 89 68 0.0 0.0 0.00 0.00 0.00 69 1018.7
20260903144258 89 69 0.0 0.0 0.00 0.00 0.00 70 1018.6
20260903143755 88 346 0.0 0.0 0.00 0.00 0.00 72 1018.6
20260903143255 88 337 0.0 0.0 0.00 0.00 0.00 74 1018.7
20260903143019 87 338 0.0 0.0 0.00 0.00 0.00 73 1018.7
20260903142257 87 321 0.0 0.0 0.00 0.00 0.00 74 1018.7
20260903141754 87 300 0.0 0.0 0.00 0.00 0.00 78 1018.7
20260903141251 86 300 0.0 0.0 0.00 0.00 0.00 79 1018.7
20260903140751 85 300 0.0 0.0 0.00 0.00 0.00 80 1018.7
20260903140252 84 300 0.0 0.0 0.00 0.00 0.00 80 1018.6
20260903135751 83 300 0.0 0.0 0.00 0.00 0.00 83 1018.7
20260903135251 83 304 0.0 0.0 0.00 0.00 0.00 84 1018.6
20260903134748 82 310 0.0 0.0 0.00 0.00 0.00 84 1018.6
20260903134248 81 327 0.0 0.0 0.00 0.00 0.00 84 1018.6
20260903133745 80 325 0.0 0.0 0.00 0.00 0.00 85 1018.7
20260903133244 80 325 0.0 0.0 0.00 0.00 0.00 87 1018.7
20260903132743 79 325 0.0 0.0 0.00 0.00 0.00 88 1018.7
20260903132509 79 325 0.0 0.0 0.00 0.00 0.00 89 1018.8
20260903132007 78 325 0.0 0.0 0.00 0.00 0.00 91 1018.9
20260903131239 78 325 0.0 0.0 0.00 0.00 0.00 91 1018.9
20260903130738 78 230 0.0 0.0 0.00 0.00 0.00 92 1018.9
20260903130238 77 230 0.0 0.0 0.00 0.00 0.00 93 1019.0
20260903125735 77 313 0.0 0.0 0.00 0.00 0.00 93 1019.0
20260903125233 77 197 0.0 0.0 0.00 0.00 0.00 93 1019.0
20260903124733 76 75 0.0 0.0 0.00 0.00 0.00 93 1019.1
20260903124500 76 74 0.0 0.0 0.00 0.00 0.00 93 1019.0
20260903123952 76 74 0.0 0.0 0.00 0.00 0.00 93 1019.1
20260903123228 76 74 0.0 0.0 0.00 0.00 0.00 93 1019.1
20260903122727 76 74 0.0 0.0 0.00 0.00 0.00 93 1019.1
20260903122227 75 74 0.0 0.0 0.00 0.00 0.00 93 1019.1
20260903121728 75 74 0.0 0.0 0.00 0.00 0.00 93 1019.0
20260903121453 75 74 0.0 0.0 0.00 0.00 0.00 93 1019.0
20260903120951 75 74 0.0 0.0 0.00 0.00 0.00 93 1018.9
20260903120228 75 74 0.0 0.0 0.00 0.00 0.00 92 1018.9
20260903115728 75 74 0.0 0.0 0.00 0.00 0.00 93 1018.9
20260903115228 75 74 0.0 0.0 0.00 0.00 0.00 92 1018.9
20260903114949 75 74 0.0 0.0 0.00 0.00 0.00 92 1018.9
20260903114223 75 74 0.0 0.0 0.00 0.00 0.00 92 1018.8
20260903113724 75 74 0.0 0.0 0.00 0.00 0.00 92 1018.8
20260903113224 75 74 0.0 0.0 0.00 0.00 0.00 92 1018.7
20260903112723 75 74 0.0 0.0 0.00 0.00 0.00 92 1018.6
20260903112224 75 74 0.0 0.0 0.00 0.00 0.00 92 1018.6
20260903111724 75 74 0.0 0.0 0.00 0.00 0.00 92 1018.6
20260903110224 75 74 0.0 0.0 0.00 0.00 0.00 91 1018.4
20260903105724 75 74 0.0 0.0 0.00 0.00 0.00 92 1018.4
20260903105224 75 74 0.0 0.0 0.00 0.00 0.00 92 1018.3
20260903104944 75 74 0.0 0.0 0.00 0.00 0.00 92 1018.3
20260903104223 75 74 0.0 0.0 0.00 0.00 0.00 92 1018.3
20260903103723 75 74 0.0 0.0 0.00 0.00 0.00 92 1018.3
20260903103223 75 74 0.0 0.0 0.00 0.00 0.00 92 1018.4
20260903102723 75 74 0.0 0.0 0.00 0.00 0.00 92 1018.3
20260903102223 75 74 0.0 0.0 0.00 0.00 0.00 92 1018.2
20260903101721 75 74 0.0 0.0 0.00 0.00 0.00 91 1018.2
20260903101222 75 74 0.0 0.0 0.00 0.00 0.00 91 1018.2
20260903100722 75 74 0.0 0.0 0.00 0.00 0.00 91 1018.2
20260903100221 75 74 0.0 0.0 0.00 0.00 0.00 91 1018.1
20260903095719 75 74 0.0 0.0 0.00 0.00 0.00 91 1018.0
20260903095217 75 74 0.0 0.0 0.00 0.00 0.00 91 1018.0
20260903094713 75 74 0.0 0.0 0.00 0.00 0.00 91 1018.0
20260903094214 75 74 0.0 0.0 0.00 0.00 0.00 91 1018.0
20260903093711 76 74 0.0 0.0 0.00 0.00 0.00 91 1018.0
20260903093211 76 74 0.0 0.0 0.00 0.00 0.00 91 1018.0
20260903092712 76 74 0.0 0.0 0.00 0.00 0.00 91 1017.9
20260903092209 76 74 0.0 0.0 0.00 0.00 0.00 91 1017.9
20260903091708 76 74 0.0 0.0 0.00 0.00 0.00 91 1018.0
20260903091208 76 74 0.0 0.0 0.00 0.00 0.00 91 1017.9
20260903090707 76 74 0.0 0.0 0.00 0.00 0.00 91 1018.0
20260903090200 76 74 0.0 0.0 0.00 0.00 0.00 90 1018.0
20260903085654 76 74 0.0 0.0 0.00 0.00 0.00 90 1018.0
20260903085148 76 74 0.0 0.0 0.00 0.00 0.00 90 1018.0
20260903084903 76 74 0.0 0.0 0.00 0.00 0.00 90 1018.0
20260903084136 76 74 0.0 0.0 0.00 0.00 0.00 90 1018.0
20260903083630 76 74 0.0 0.0 0.00 0.00 0.00 90 1017.9
20260903083343 76 74 0.0 0.0 0.00 0.00 0.00 90 1017.9
20260903082618 76 74 0.0 0.0 0.00 0.00 0.00 90 1017.8
20260903082112 76 74 0.0 0.0 0.00 0.00 0.00 90 1017.8
20260903081606 76 74 0.0 0.0 0.00 0.00 0.00 90 1017.8
20260903081318 76 74 0.0 0.0 0.00 0.00 0.00 90 1017.7
20260903080554 77 74 0.0 0.0 0.00 0.00 0.00 90 1017.7
20260903080048 77 74 0.0 0.0 0.00 0.00 0.00 90 1017.8
20260903075542 77 74 0.0 0.0 0.00 0.00 0.00 89 1017.7
20260903075036 77 74 0.0 0.0 0.00 0.00 0.00 89 1017.8
20260903074749 77 74 0.0 0.0 0.00 0.00 0.00 89 1017.6
20260903074024 77 74 0.0 0.0 0.00 0.00 0.00 89 1017.6
20260903073519 77 74 0.0 0.0 0.00 0.00 0.00 89 1017.6
20260903073012 77 74 0.0 0.0 0.00 0.00 0.00 88 1017.5
20260903072507 77 74 0.0 0.0 0.00 0.00 0.00 88 1017.5
20260903072000 77 74 0.0 0.0 0.00 0.00 0.00 88 1017.5
20260903071720 77 74 0.0 1.0 0.00 0.00 0.00 88 1017.4
20260903070948 77 74 0.0 1.0 0.00 0.00 0.00 88 1017.4
20260903070714 77 74 0.0 0.0 0.00 0.00 0.00 88 1017.3
20260903065936 77 74 0.0 1.0 0.00 0.00 0.00 88 1017.3
20260903065431 78 74 0.0 1.0 0.00 0.00 0.00 88 1017.4
20260903064925 78 74 0.0 0.0 0.00 0.00 0.00 87 1017.4
20260903064418 78 74 0.0 1.0 0.00 0.00 0.00 87 1017.4
20260903063912 78 74 0.0 1.0 0.00 0.00 0.00 87 1017.4
20260903063628 78 74 0.0 1.0 0.00 0.00 0.00 87 1017.4
20260903062900 78 74 0.0 2.0 0.00 0.00 0.00 87 1017.4
20260903062619 78 74 0.0 2.0 0.00 0.00 0.00 87 1017.3
20260903061848 78 74 0.0 1.0 0.00 0.00 0.00 87 1017.2
20260903061343 78 74 0.0 1.0 0.00 0.00 0.00 86 1017.3
20260903061101 78 74 0.0 1.0 0.00 0.00 0.00 86 1017.3
20260903060330 78 74 0.0 1.0 0.00 0.00 0.00 86 1017.3
20260903055825 78 74 0.0 1.0 0.00 0.00 0.00 86 1017.3
20260903055318 79 74 0.0 1.0 0.00 0.00 0.00 86 1017.3
20260903054813 79 74 0.0 1.0 0.00 0.00 0.00 86 1017.3
20260903054306 79 74 0.0 1.0 0.00 0.00 0.00 85 1017.3
20260903053800 79 74 0.0 0.0 0.00 0.00 0.00 85 1017.4
20260903053254 79 74 0.0 0.0 0.00 0.00 0.00 85 1017.4
20260903053014 79 74 0.0 0.0 0.00 0.00 0.00 85 1017.4
20260903052243 79 74 0.0 0.0 0.00 0.00 0.00 85 1017.4
20260903051737 79 74 0.0 1.0 0.00 0.00 0.00 85 1017.3
20260903051231 79 74 0.0 1.0 0.00 0.00 0.00 85 1017.3